Track GLOBALSTAR M085 now! 10-day predictions GLOBALSTAR M085 is classified as:
1 37742U 11033D 21058.48062612 -.00000080 00000-0 13362-3 0 9993 2 37742 51.9886 327.4878 0000611 62.7466 108.6414 12.62264795445461